This is the latest recevied weather packets stored in our database for station/object KE0LFX. If no packets are shown the sender has not sent any weather packets the latest 1 day(s).
| Time | Temp. | Humidity | Pressure | Rain* | Wind** | Luminosity | Snow |
|---|---|---|---|---|---|---|---|
| 1778029698 | 12.78° C | 42% | 1014.1 hPa | 0 mm | 1.34 m/s, 4° | 0 W/m² | - |
| 1778029395 | 12.78° C | 42% | 1013.9 hPa | 0 mm | 0.45 m/s, 347° | 2 W/m² | - |
| 1778029092 | 12.78° C | 41% | 1014 hPa | 0 mm | 1.79 m/s, 328° | 3 W/m² | - |
| 1778028789 | 13.33° C | 41% | 1013.9 hPa | 0 mm | 0.89 m/s, 322° | 5 W/m² | - |
| 1778028485 | 13.33° C | 41% | 1013.8 hPa | 0 mm | 0.89 m/s, 314° | 7 W/m² | - |
| 1778028183 | 13.33° C | 40% | 1014 hPa | 0 mm | 1.79 m/s, 323° | 9 W/m² | - |
| 1778027878 | 13.33° C | 40% | 1013.9 hPa | 0 mm | 1.34 m/s, 347° | 11 W/m² | - |
| 1778027575 | 13.33° C | 39% | 1013.9 hPa | 0 mm | 1.79 m/s, 19° | 13 W/m² | - |
| 1778027271 | 13.33° C | 39% | 1013.8 hPa | 0 mm | 0.89 m/s, 332° | 16 W/m² | - |
| 1778026968 | 13.33° C | 39% | 1013.6 hPa | 0 mm | 2.24 m/s, 335° | 18 W/m² | - |
| 1778026663 | 13.89° C | 38% | 1013.5 hPa | 0 mm | 0.89 m/s, 347° | 22 W/m² | - |
| 1778026361 | 13.89° C | 38% | 1013.4 hPa | 0 mm | 2.24 m/s, 336° | 30 W/m² | - |
| 1778026058 | 13.89° C | 37% | 1013.6 hPa | 0 mm | 0.45 m/s, 316° | 46 W/m² | - |
| 1778025755 | 14.44° C | 37% | 1013.4 hPa | 0 mm | 2.24 m/s, 278° | 58 W/m² | - |
| 1778025452 | 14.44° C | 37% | 1013.4 hPa | 0 mm | 0.89 m/s, 304° | 75 W/m² | - |
| 1778025150 | 14.44° C | 36% | 1013.4 hPa | 0 mm | 1.34 m/s, 325° | 80 W/m² | - |
| 1778024847 | 14.44° C | 36% | 1013.5 hPa | 0 mm | 0.45 m/s, 252° | 81 W/m² | - |
| 1778024544 | 14.44° C | 37% | 1013.5 hPa | 0 mm | 0.45 m/s, 272° | 84 W/m² | - |
| 1778024240 | 14.44° C | 36% | 1013.6 hPa | 0 mm | 0.89 m/s, 330° | 75 W/m² | - |
| 1778023939 | 14.44° C | 36% | 1013.5 hPa | 0 mm | 2.24 m/s, 337° | 75 W/m² | - |
| 1778023635 | 14.44° C | 37% | 1013.3 hPa | 0 mm | 1.34 m/s, 346° | 92 W/m² | - |
| 1778023333 | 14.44° C | 36% | 1013.2 hPa | 0 mm | 1.34 m/s, 304° | 108 W/m² | - |
| 1778023029 | 14.44° C | 36% | 1013.2 hPa | 0 mm | 2.24 m/s, 261° | 106 W/m² | - |
| 1778022729 | 14.44° C | 37% | 1013.1 hPa | 0 mm | 0.45 m/s, 283° | 113 W/m² | - |
| 1778022426 | 14.44° C | 36% | 1013.1 hPa | 0 mm | 0 m/s | 110 W/m² | - |
* Rain latest hour (hover to see other rain measurements)
** Current wind speed in m/s (hover to see current wind gust speed)